Location: Mauries
(43.6188°N, 0.3322°W)
Time: 17:56:15
(UTC+00:00)

CUBEBUG 2 - Pass Details

Date: 18 May 2026
Orbit: 545 x 628 km, 97.9° (Epoch: 10 June)

Event Time Altitude Azimuth Distance (km) Brightness Sun altitude
Rises 03:19:53 0° 0° (N) 2,726 ? -11.7°
Reaches altitude 10° 03:22:17 10° 347° (NNW) 1,824 ? -11.4°
Maximum altitude 03:25:30 25° 292° (WNW) 1,142 ? -11.0°
Enters shadow 03:27:54 14° 245° (WSW) 1,561 ? -10.6°
